Location: Hokitika
(42.7170°S, 170.9670°E)
Time: 11:39:59
(UTC+13:00)

Cosmos 1386 Rocket - Pass Details

Date: 24 January 2019
Orbit: 930 x 1005 km, 83.0° (Epoch: 18 February)

Event Time Altitude Azimuth Distance (km) Brightness Sun altitude
Exits shadow 23:09:17 24° 9° (N) 1,885 5.5 -18.1°
Maximum altitude 23:13:08 69° 86° (E) 1,024 4.4 -18.5°
Drops below altitude 10° 23:19:14 10° 168° (SSE) 2,688 7.3 -19.2°
Sets 23:21:44 0° 169° (S) 3,632 8.1 -19.5°
